Historique des stations

Station météo de Athée-sur-Cher

Altitude de la station : 93 m







Données météorologiques pour le 04/12/2022
Date
Heure
Températures Humidité Point de rosée Vitesse
du vent
Direction Rafales Windchill Pression Pluviométrie
Cumul
Date
Heure
Températures Humidité Point de rosée Vitesse
du vent
Direction Rafales Windchill Pression Pluviométrie
Cumul
04/12/2022 15:104.6 °C89 %2.9 °C-2 km/h4.61012 hPa0.0 mm
04/12/2022 15:004.5 °C89 %2.8 °C-S2 km/h4.51012 hPa0.0 mm
04/12/2022 14:404.6 °C90 %3.1 °C-SSE2 km/h4.61012 hPa0.0 mm
04/12/2022 14:304.6 °C91 %3.2 °C-E2 km/h4.61012 hPa0.0 mm
04/12/2022 14:104.4 °C91 %3.1 °C1 km/hNNE2 km/h4.41012 hPa0.0 mm
04/12/2022 14:004.6 °C92 %3.4 °C1 km/hNNE2 km/h4.61012 hPa0.0 mm
04/12/2022 13:404.5 °C92 %3.3 °C2 km/hNNE2 km/h4.51012 hPa0.0 mm
04/12/2022 13:304.4 °C92 %3.3 °C3 km/hNNE6 km/h4.41012 hPa0.0 mm
04/12/2022 13:104.3 °C93 %3.3 °C3 km/hNNE6 km/h4.31012 hPa0.0 mm
04/12/2022 13:004.1 °C93 %3.1 °C4 km/hNNE5 km/h4.11012 hPa0.0 mm
04/12/2022 12:404.0 °C93 %3.0 °C4 km/hNNE8 km/h4.01012 hPa0.0 mm
04/12/2022 12:303.9 °C92 %2.8 °C4 km/h8 km/h3.91012 hPa0.0 mm
04/12/2022 12:103.8 °C92 %2.6 °C3 km/hNNE8 km/h3.81012 hPa0.0 mm
04/12/2022 12:003.8 °C92 %2.7 °C3 km/hNNE6 km/h3.81012 hPa0.0 mm
04/12/2022 11:403.7 °C92 %2.5 °C3 km/hNNE5 km/h3.71012 hPa0.0 mm
04/12/2022 11:303.7 °C92 %2.5 °C3 km/h6 km/h3.71012 hPa0.0 mm
04/12/2022 11:103.6 °C92 %2.4 °C3 km/h6 km/h3.61012 hPa0.0 mm
04/12/2022 11:003.4 °C92 %2.3 °C3 km/h6 km/h3.41012 hPa0.0 mm
04/12/2022 10:403.4 °C92 %2.2 °C3 km/h5 km/h3.41012 hPa0.0 mm
04/12/2022 10:303.3 °C92 %2.2 °C3 km/h6 km/h3.31011 hPa0.0 mm
04/12/2022 10:103.2 °C92 %2.0 °C2 km/h6 km/h3.21011 hPa0.0 mm
04/12/2022 10:003.3 °C92 %2.1 °C2 km/h6 km/h3.31011 hPa0.0 mm
04/12/2022 09:403.2 °C92 %2.0 °C3 km/hNNE5 km/h3.21011 hPa0.0 mm
04/12/2022 09:303.1 °C92 %1.9 °C3 km/h5 km/h3.11011 hPa0.0 mm
04/12/2022 09:103.1 °C92 %1.9 °C4 km/h6 km/h3.11011 hPa0.0 mm
04/12/2022 09:003.0 °C92 %1.8 °C4 km/hNNE8 km/h3.01011 hPa0.0 mm
04/12/2022 08:402.9 °C92 %1.8 °C4 km/hNNE8 km/h2.91011 hPa0.0 mm
04/12/2022 08:302.9 °C92 %1.8 °C5 km/hNNE8 km/h2.91011 hPa0.0 mm
04/12/2022 08:102.9 °C92 %1.7 °C5 km/hNNE8 km/h2.91011 hPa0.0 mm
04/12/2022 08:002.9 °C92 %1.7 °C5 km/hNNE8 km/h2.91011 hPa0.0 mm
04/12/2022 07:402.9 °C92 %1.8 °C5 km/hNNE6 km/h2.91011 hPa0.0 mm
04/12/2022 07:302.9 °C92 %1.8 °C5 km/hNNE10 km/h2.91011 hPa0.0 mm
04/12/2022 07:102.9 °C92 %1.7 °C5 km/hNNE8 km/h2.91011 hPa0.0 mm
04/12/2022 07:002.9 °C92 %1.8 °C5 km/hNNE8 km/h2.91011 hPa0.0 mm
04/12/2022 06:402.9 °C92 %1.8 °C5 km/h10 km/h2.91011 hPa0.0 mm
04/12/2022 06:302.9 °C92 %1.7 °C5 km/hNNE8 km/h2.91011 hPa0.0 mm
04/12/2022 06:102.9 °C92 %1.7 °C5 km/hNNE10 km/h2.91011 hPa0.0 mm
04/12/2022 06:002.9 °C92 %1.7 °C5 km/hNNE8 km/h2.91011 hPa0.0 mm
04/12/2022 05:402.8 °C91 %1.5 °C5 km/h10 km/h2.81011 hPa0.0 mm
04/12/2022 05:302.8 °C91 %1.5 °C6 km/hNNE10 km/h2.81011 hPa0.0 mm
04/12/2022 05:102.8 °C91 %1.5 °C6 km/hNNE10 km/h2.81011 hPa0.0 mm
04/12/2022 05:002.8 °C91 %1.5 °C7 km/h10 km/h2.81011 hPa0.0 mm
04/12/2022 04:402.8 °C91 %1.5 °C8 km/hNNE11 km/h2.81011 hPa0.0 mm
04/12/2022 04:302.9 °C91 %1.6 °C8 km/hNNE13 km/h0.61011 hPa0.0 mm
04/12/2022 04:102.9 °C91 %1.6 °C8 km/h11 km/h0.61011 hPa0.0 mm
04/12/2022 04:002.8 °C91 %1.5 °C8 km/h13 km/h0.41011 hPa0.0 mm
04/12/2022 03:402.8 °C91 %1.5 °C8 km/h13 km/h0.51011 hPa0.0 mm
04/12/2022 03:302.8 °C91 %1.5 °C8 km/hNNE15 km/h0.51011 hPa0.0 mm
04/12/2022 03:102.9 °C91 %1.6 °C8 km/hNNE13 km/h0.51011 hPa0.0 mm
04/12/2022 03:002.9 °C92 %1.7 °C7 km/hNNE11 km/h0.41011 hPa0.0 mm
04/12/2022 02:402.9 °C92 %1.8 °C7 km/hNNE11 km/h2.91011 hPa0.0 mm
04/12/2022 02:302.9 °C92 %1.7 °C6 km/hNNE11 km/h0.61011 hPa0.0 mm
04/12/2022 02:102.9 °C92 %1.7 °C6 km/hNNE10 km/h2.91011 hPa0.0 mm
04/12/2022 02:002.9 °C92 %1.7 °C6 km/h10 km/h2.91011 hPa0.0 mm
04/12/2022 01:402.9 °C92 %1.7 °C7 km/hNNE10 km/h2.91011 hPa0.0 mm
04/12/2022 01:302.9 °C92 %1.7 °C8 km/hNNE11 km/h2.91011 hPa0.0 mm
04/12/2022 01:102.9 °C92 %1.7 °C8 km/hNNE13 km/h0.41011 hPa0.0 mm
04/12/2022 00:403.0 °C92 %1.8 °C9 km/hNNE13 km/h0.51012 hPa1.8 mm
04/12/2022 00:303.1 °C91 %1.7 °C9 km/h16 km/h0.31012 hPa1.8 mm
04/12/2022 00:103.2 °C91 %1.8 °C8 km/h13 km/h0.41012 hPa1.6 mm
04/12/2022 00:003.3 °C90 %1.8 °C8 km/h13 km/h1.01012 hPa1.6 mm


Minima :

Température : 2.8 °C
Humidité : 89 %
Point de rosée : 1.5 °C
Vent moyen : 1 km/h
Windchill : 0.3
Pression atm. : 1011 hPa
Maxima :

Température : 4.6 °C
Humidité : 93 %
Point de rosée : 3.4 °C
Vent moyen : 9 km/h
Windchill : 4.6
Pression atm. : 1012 hPa
Rafales max : 16 km/h
Cumul de pluie sur 24H : 1.8 mm

Athee-sur-Cher est une commune du département Indre-et-Loire (37).
La station météorologique du réseau de l'association la plus proche de Athée-sur-Cher est celle de Véretz



Icône Facebook Association Météo Centre Icône Twitter Association Météo Centre Icône Chaîne Youtube Association Météo Centre Icône contact Association Météo Centre Icône Insta Association Météo Centre